Weather History for Agassiz, BC

Change the Weather History Date:

Wednesday, February 6, 2013

  Actual Average Record
Temperature  
Mean Temperature 44 °F -  
Max Temperature 48 °F - - ()
Min Temperature 41 °F - - ()
Degree Days  
Heating Degree Days 20    
Moisture  
Dew Point 41 °F    
Average Humidity 91    
Maximum Humidity 98    
Minimum Humidity 72    
Precipitation  
Precipitation 0.12 in - - ()
Sea Level Pressure  
Sea Level Pressure 29.94 in    
Wind  
Wind Speed 2 mph ()    
Max Wind Speed 5 mph    
Max Gust Speed -    
T = Trace of Precipitation, MM = Missing Value Source: Averaged Metar Reports

Daily Weather History Graph

Daily Weather History Graph

Search for Another Location

Airport:

Trip Planner

Search our weather history database for the weather conditions in past years. The results will help you decide how hot, cold, wet, or windy it might be!

Date:

Astronomy

Feb. 06, 2013 Rise Set
Actual Time 7:30 AM PST 5:12 PM PST
Civil Twilight 6:56 AM PST 5:46 PM PST
Nautical Twilight 6:18 AM PST 6:24 PM PST
Astronomical Twilight 5:41 AM PST 7:01 PM PST
Moon 4:30 AM PST (2/6) 1:26 PM PST (2/6)
Length of Visible Light 10h 49m
Length of Day
9h 42m
Waning Crescent, 16% of the Moon is Illuminated
Feb 6
Waning Crescent
Feb 9
New
Feb 17
First Quarter
Feb 25
Full
Mar 4
Last Quarter

Hourly Weather History & Observations

Time (PST) Temp. Windchill Dew Point Humidity Pressure Visibility Wind Dir Wind Speed Gust Speed Precip Events Conditions
12:00 AM 43.9 °F - 42.1 °F 93% 29.87 in - East 2.3 mph - N/A   Unknown
1:00 AM 44.1 °F - 41.7 °F 91% 29.89 in - WNW 2.3 mph - 0.06 in   Unknown
2:00 AM 43.2 °F - 41.7 °F 95% 29.91 in - ENE 1.2 mph - 0.03 in   Unknown
3:00 AM 42.4 °F - 41.4 °F 96% 29.92 in - ENE 1.2 mph - N/A   Unknown
4:00 AM 42 °F - 42 °F 98% 29.94 in - NNW 3.5 mph - -  
4:00 AM 42.3 °F 40.5 °F 41.5 °F 97% 29.94 in - NNW 3.5 mph - 0.03 in   Unknown
5:00 AM 42.1 °F - 40.8 °F 95% 29.96 in - NNE 2.3 mph - 0.06 in   Unknown
6:00 AM 41.7 °F - 40.8 °F 97% 29.97 in - ESE 1.2 mph - 0.04 in   Unknown
7:00 AM 41.4 °F - 40.6 °F 97% 29.97 in - Calm Calm - N/A   Unknown
8:00 AM 41.4 °F - 40.8 °F 98% 29.99 in - Calm Calm - 0.02 in   Unknown
9:00 AM 42.4 °F - 41.9 °F 98% 29.99 in - SE 1.2 mph - N/A   Unknown
10:00 AM 43 °F - 42 °F 95% 30.00 in - SE 1.2 mph - -  
10:00 AM 42.8 °F - 42.1 °F 97% 30.00 in - SE 1.2 mph - N/A   Unknown
11:00 AM 45.3 °F - 41.0 °F 85% 30.01 in - SSE 1.2 mph - N/A   Unknown
1:00 PM 47.8 °F - 40.3 °F 75% 29.99 in - East 4.6 mph - N/A   Unknown
2:00 PM 48.7 °F - 39.9 °F 72% 29.96 in - ESE 3.5 mph - N/A   Unknown
3:00 PM 47.7 °F - 39.2 °F 72% 29.95 in - East 3.5 mph - N/A   Unknown
4:00 PM 47 °F - 43 °F 79% 29.96 in - NNW 2.3 mph - -  
4:00 PM 46.6 °F - 42.6 °F 86% 29.96 in - NNW 2.3 mph - N/A   Unknown
5:00 PM 44.8 °F - 42.8 °F 93% 29.96 in - West 1.2 mph - 0.02 in   Unknown
6:00 PM 43.2 °F - 42.1 °F 96% 29.95 in - Calm Calm - 0.03 in   Unknown
7:00 PM 42.3 °F - 41.5 °F 97% 29.93 in - North 1.2 mph - N/A   Unknown
8:00 PM 42.4 °F - 41.4 °F 96% 29.91 in - ESE 1.2 mph - N/A   Unknown
9:00 PM 42.3 °F - 41.0 °F 95% 29.89 in - WSW 1.2 mph - N/A   Unknown
10:00 PM 43 °F - 39 °F 81% 29.87 in - North 3.5 mph - -  
10:00 PM 42.8 °F 41.1 °F 39.2 °F 87% 29.87 in - North 3.5 mph - N/A   Unknown
11:00 PM 42.4 °F - 39.4 °F 89% 29.85 in - North 1.2 mph - N/A   Unknown